Location: The Saddle
(36.8333°N, 80.3417°W)
Time: 18:01:12
(UTC-04:00)

DUCHIFAT 1 - Visible Passes

Search period start: 31 March 2023 00:00
Search period end: 10 April 2023 00:00
Orbit: 569 x 586 km, 98.1° (Epoch: 31 March)

Date Brightness Start Highest point End Pass type
(mag) Time Alt. Az. Time Alt. Az. Time Alt. Az.
31 Mar ? 03:50:11 10° NE 03:50:46 13° NE 03:50:46 13° NE visible
31 Mar ? 05:25:25 10° NNW 05:27:04 18° NW 05:27:04 18° NW visible
01 Apr ? 03:54:12 10° NE 03:55:05 15° NE 03:55:05 15° NE visible
01 Apr ? 05:29:40 10° NNW 05:31:23 18° NW 05:31:23 18° NW visible
02 Apr ? 03:58:10 10° NE 03:59:23 17° NE 03:59:23 17° NE visible
02 Apr ? 05:33:55 10° NNW 05:35:40 17° NW 05:35:40 17° NW visible
03 Apr ? 04:02:09 10° NNE 04:03:37 19° NE 04:03:37 19° NE visible
03 Apr ? 05:38:10 10° NNW 05:39:54 16° NW 05:39:54 16° NW visible
04 Apr ? 04:06:07 10° NNE 04:07:50 22° NE 04:07:50 22° NE visible
04 Apr ? 05:42:24 10° NNW 05:44:08 15° NW 05:44:08 15° NW visible
05 Apr ? 04:10:03 10° NNE 04:12:02 25° NE 04:12:02 25° NE visible
05 Apr ? 05:46:40 10° NW 05:48:19 14° WNW 05:48:19 14° WNW visible
06 Apr ? 04:13:59 10° NNE 04:16:12 28° NE 04:16:12 28° NE visible
06 Apr ? 05:50:56 10° NW 05:52:29 12° WNW 05:52:29 12° WNW visible
07 Apr ? 04:17:53 10° NNE 04:20:20 32° NE 04:20:20 32° NE visible
07 Apr ? 05:55:19 10° NW 05:56:35 11° WNW 05:56:36 11° WNW visible
08 Apr ? 04:21:46 10° NNE 04:24:26 37° NE 04:24:26 37° NE visible
08 Apr ? 06:00:01 10° WNW 06:00:28 10° WNW 06:00:42 10° WNW visible
09 Apr ? 04:25:38 10° NNE 04:28:30 42° NE 04:28:30 42° NE visible
